User: anonymous
Location: Whitehorse
(60.7170°N, 135.0500°W)
Time: 03:10:06
(UTC-07:00)
Language:

Cosmos 2219 Rocket - Orbit

View from above orbital plane
View from above orbital plane
View from above satellite
View from above satellite

Ground track
Ground track

The orbit data is extracted from the following two-line orbital elements,

1 22220U 92076B   14105.19190696 -.00000242  00000-0 -97751-4 0  2855
2 22220 071.0018 338.6679 0014774 244.4141 263.5802 14.16307840106661
Epoch (UTC): 15 April 2014 04:36:20
Eccentricity: 0.0014774
inclination: 71.0018°
perigee height: 827 km
apogee height: 848 km
right ascension of ascending node: 338.6679°
argument of perigee: 244.4141°
revolutions per day: 14.16307840
mean anomaly at epoch: 263.5802°
orbit number at epoch: 10666

The dashed part of the orbit path shows where the satellite is in the earth's shadow,  

DLR